Location: Amsterdam
(30.7274°N, 84.4357°W)
Time: 16:35:03
(UTC+00:00)

Injun/Solrad 3 - Pass Details

Date: 21 February 2026
Orbit: 871 x 985 km, 66.8° (Epoch: 11 March)

Event Time Altitude Azimuth Distance (km) Brightness Sun altitude
Rises 16:40:45 0° 239° (WSW) 3,447 10.9 45.5°
Reaches altitude 10° 16:43:44 10° 253° (WSW) 2,515 10.2 45.8°
Maximum altitude 16:48:14 23° 305° (NW) 1,779 9.3 46.2°
Drops below altitude 10° 16:52:49 10° 356° (N) 2,551 9.9 46.6°
Sets 16:55:54 0° 11° (N) 3,510 10.6 46.8°
